KE7YUP Weather Reports


Display with metric or nautical units.
time (UTC)temp
F
wind
direction
speed
MPH
gust
MPH
rain 1hr
in
rain 24hr
in
rain mn
in
humidity
%
barometer
mb
20260505001815 67 111 1.0 6.0 0.00 0.00 0.00 31 1008.8
20260505000817 67 67 4.0 8.0 0.00 0.00 0.00 32 1008.9
20260504235817 67 56 5.0 8.0 0.00 0.00 0.00 33 1008.9
20260504234817 68 114 1.0 3.0 0.00 0.00 0.00 29 1009.2
20260504233816 67 257 2.0 7.0 0.00 0.00 0.00 31 1008.8
20260504232817 66 324 1.0 2.0 0.00 0.00 0.00 32 1008.7
20260504231816 65 353 6.0 8.0 0.00 0.00 0.00 35 1008.6
20260504230817 65 321 8.0 11.0 0.00 0.00 0.00 36 1008.5
20260504225816 65 288 5.0 11.0 0.00 0.00 0.00 35 1008.9
20260504224816 64 251 12.0 16.0 0.00 0.00 0.00 36 1009.1
20260504223816 65 283 13.0 16.0 0.00 0.00 0.00 37 1009.1
20260504222817 65 291 10.0 17.0 0.00 0.00 0.00 37 1009.1
20260504221816 66 288 12.0 17.0 0.00 0.00 0.00 39 1009.4
20260504220816 67 263 11.0 18.0 0.00 0.00 0.00 37 1009.3
20260504215817 66 290 10.0 16.0 0.00 0.00 0.00 38 1008.9
20260504214816 66 291 11.0 15.0 0.00 0.00 0.00 40 1009.1
20260504213816 64 279 7.0 14.0 0.00 0.00 0.00 39 1008.9
20260504212817 64 277 7.0 11.0 0.00 0.00 0.00 41 1009.3
20260504211817 64 263 14.0 18.0 0.00 0.00 0.00 39 1009.5
20260504210836 64 279 8.0 14.0 0.00 0.00 0.00 40 1009.5
20260504205816 65 305 12.0 17.0 0.00 0.00 0.00 41 1009.6
20260504204816 65 266 10.0 17.0 0.00 0.00 0.00 37 1009.5
20260504203817 68 281 8.0 16.0 0.00 0.00 0.00 34 1010.1
20260504202817 68 162 6.0 9.0 0.00 0.00 0.00 34 1010.2
20260504201837 68 147 5.0 11.0 0.00 0.00 0.00 33 1010.1
20260504200816 68 100 9.0 14.0 0.00 0.00 0.00 33 1010.0
20260504195816 69 141 12.0 15.0 0.00 0.00 0.00 31 1009.7
20260504194816 69 120 12.0 16.0 0.00 0.00 0.00 32 1009.9
20260504193837 69 141 7.0 14.0 0.00 0.00 0.00 32 1009.9
20260504192816 69 125 11.0 16.0 0.00 0.00 0.00 32 1010.7
20260504191816 69 99 9.0 14.0 0.00 0.00 0.00 33 1010.8
20260504190816 70 119 8.0 15.0 0.00 0.00 0.00 32 1010.8
20260504185816 69 126 10.0 14.0 0.00 0.00 0.00 34 1011.1
20260504184816 69 122 8.0 15.0 0.00 0.00 0.00 34 1011.1
20260504183837 69 99 7.0 10.0 0.00 0.00 0.00 34 1011.3
20260504182816 69 106 4.0 12.0 0.00 0.00 0.00 34 1011.0
20260504181836 68 88 7.0 10.0 0.00 0.00 0.00 35 1011.1
20260504180836 67 137 6.0 10.0 0.00 0.00 0.00 36 1011.4
20260504175816 67 95 5.0 13.0 0.00 0.00 0.00 38 1012.2
20260504174816 67 88 9.0 14.0 0.00 0.00 0.00 37 1012.4
20260504173816 67 82 6.0 14.0 0.00 0.00 0.00 38 1012.4
20260504172816 66 86 11.0 14.0 0.00 0.00 0.00 38 1013.0
20260504171836 66 98 7.0 11.0 0.00 0.00 0.00 37 1013.0
20260504170837 66 130 8.0 12.0 0.00 0.00 0.00 38 1013.1
20260504150815 62 137 3.0 5.0 0.00 0.00 0.00 45 1014.0
20260504140815 57 327 1.0 3.0 0.00 0.00 0.00 54 1013.3
20260504130816 55 11 2.0 4.0 0.00 0.00 0.00 59 1013.5
20260504081817 58 118 2.0 4.0 0.00 0.00 0.00 32 1013.3
20260504080817 58 269 5.0 11.0 0.00 0.00 0.00 32 1013.2
20260504045815 64 321 6.0 10.0 0.00 0.00 0.00 25 1013.0
20260504044815 63 312 6.0 9.0 0.00 0.00 0.00 25 1013.0
20260504043815 63 311 8.0 10.0 0.00 0.00 0.00 26 1013.1
20260504042816 63 302 7.0 10.0 0.00 0.00 0.00 27 1012.5
20260504041836 63 310 4.0 7.0 0.00 0.00 0.00 26 1012.5
20260504040856 64 349 2.0 3.0 0.00 0.00 0.00 26 1012.8
20260504035815 64 322 6.0 9.0 0.00 0.00 0.00 25 1012.1
20260504034815 64 318 8.0 10.0 0.00 0.00 0.00 25 1012.1
20260504033815 65 0.0 0.0 0.00 0.00 0.00 24 1012.4
20260504032835 66 172 0.0 1.0 0.00 0.00 0.00 24 1012.5
20260504031815 68 159 3.0 6.0 0.00 0.00 0.00 22 1012.6
20260504030815 68 15 4.0 8.0 0.00 0.00 0.00 21 1012.5
20260504025815 68 354 10.0 22.0 0.00 0.00 0.00 19 1011.8
20260504024815 68 357 4.0 6.0 0.00 0.00 0.00 21 1012.1
20260504023815 68 4 3.0 7.0 0.00 0.00 0.00 21 1011.9
20260504022815 68 346 3.0 5.0 0.00 0.00 0.00 21 1011.6
20260504021815 68 359 7.0 11.0 0.00 0.00 0.00 20 1011.6
20260504020815 69 12 2.0 4.0 0.00 0.00 0.00 20 1011.6
20260504015815 69 2 4.0 6.0 0.00 0.00 0.00 19 1012.2
20260504014815 70 41 2.0 7.0 0.00 0.00 0.00 19 1012.5
20260504013815 70 10 1.0 3.0 0.00 0.00 0.00 18 1012.7
20260504012815 70 6 6.0 9.0 0.00 0.00 0.00 18 1011.9
20260504011815 71 38 7.0 10.0 0.00 0.00 0.00 19 1012.0
20260504010815 71 353 6.0 11.0 0.00 0.00 0.00 17 1012.1
20260504005815 71 344 2.0 5.0 0.00 0.00 0.00 17 1012.3
20260504004815 71 271 2.0 4.0 0.00 0.00 0.00 18 1012.4
20260504003815 71 154 1.0 2.0 0.00 0.00 0.00 16 1012.5
20260504002815 71 234 6.0 13.0 0.00 0.00 0.00 17 1013.1